This demonstration page uses our WeatherBlox Daily Observations layout. Learn more.

Left ArrowRight Arrow

39.01783, -85.05884

Hourly Observations for February 1, 2019

Temp ( °F °C ) Dew Point ( °F °C ) Humidity (%) Winds ( mph kmh ) Pressure ( in mb ) Visibility ( mi km ) Precip ( " mm )
12:52 am 00:52 Cloudy 16 -8.9 9 -12.8 74 74 ENE 9 15 30.29 1026 10 16 0.00 0.00
1:52 am 01:52 Cloudy 17 -8.3 10 -12.2 74 74 ENE 8 13 30.27 1025 10 16 0.00 0.03
2:52 am 02:52 Cloudy with Light Snow 17 -8.3 11 -11.7 77 77 ENE 12 19 30.27 1025 5 8 0.00 0.03
3:52 am 03:52 Cloudy with Light Snow 17 -8.3 12 -11.1 80 80 ESE 7 11 30.26 1025 8 13 0.00 0.03
4:52 am 04:52 Cloudy 18 -7.8 12 -11.1 77 77 E 7 11 30.24 1024 8 13 0.00 0.03
5:52 am 05:52 Cloudy with Light Snow 18 -7.8 13 -10.6 81 81 SSE 7 11 30.24 1024 4 6 0.00 0.03
6:03 am 06:03 Cloudy with Light Snow 18 -7.8 13 -10.6 81 81 SE 6 9 30.28 1025 3 4 0.01 0.25
6:25 am 06:25 Cloudy with Light Snow 18 -7.8 14 -10 84 84 SE 5 7 30.29 1026 3 5 0.01 0.25
6:52 am 06:52 Cloudy with Light Snow 19 -7.2 14 -10 81 81 E 6 9 30.26 1025 5 8 0.01 0.25
7:23 am 07:23 Cloudy with Light Snow 19 -7.2 15 -9.4 84 84 ESE 5 7 30.29 1026 1 2 0.00 0.03
7:52 am 07:52 Cloudy with Light Snow 19 -7.2 15 -9.4 84 84 E 5 7 30.27 1025 1 2 0.00 0.03
8:21 am 08:21 Cloudy with Light Snow 19 -7.2 15 -9.4 84 84 E 5 7 30.31 1027 3 4 0.01 0.25
8:52 am 08:52 Cloudy with Light Snow 20 -6.7 16 -8.9 85 85 E 3 6 30.28 1026 3 4 0.01 0.25
9:09 am 09:09 Cloudy with Light Snow 20 -6.7 16 -8.9 85 85 E 6 9 30.33 1027 6 10 0.00 0.03
9:52 am 09:52 Cloudy with Mist and Fog 21 -6.1 16 -8.9 81 81 ENE 3 6 30.31 1026 6 10 0.00 0.03
10:52 am 10:52 Cloudy 21 -6.1 17 -8.3 85 85 Calm 30.31 1027 7 11 0.00 0.00
11:52 am 11:52 Cloudy with Mist and Fog 24 -4.4 18 -7.8 77 77 Calm 30.32 1027 6 10 0.00 0.00
12:36 pm 12:36 Cloudy 26 -3.3 20 -6.7 78 78 Calm 30.33 1027 7 11 0.00 0.00
12:52 pm 12:52 Cloudy 26 -3.3 20 -6.7 78 78 Calm 30.30 1026 7 11 0.00 0.00
1:52 pm 13:52 Cloudy 28 -2.2 21 -6.1 75 75 NE 3 6 30.29 1026 7 11 0.00 0.00
2:44 pm 14:44 Cloudy 29 -1.7 22 -5.6 75 75 Calm 30.32 1027 7 11 0.00 0.00
2:52 pm 14:52 Cloudy 30 -1.1 22 -5.6 72 72 Calm 30.29 1026 7 11 0.00 0.00
3:52 pm 15:52 Cloudy 30 -1.1 22 -5.6 72 72 NNE 5 7 30.31 1026 7 11 0.00 0.00
4:52 pm 16:52 Cloudy 31 -0.6 23 -5 72 72 Calm 30.32 1027 7 11 0.00 0.00
5:52 pm 17:52 Cloudy with Haze 30 -1.1 23 -5 75 75 E 6 9 30.31 1027 6 10 0.00 0.00
6:52 pm 18:52 Cloudy 29 -1.7 22 -5.6 75 75 ESE 5 7 30.32 1027 8 13 0.00 0.00
7:52 pm 19:52 Mostly Cloudy 27 -2.8 21 -6.1 78 78 ENE 5 7 30.33 1027 8 13 0.00 0.00
8:52 pm 20:52 Partly Cloudy 26 -3.3 20 -6.7 78 78 E 5 7 30.35 1028 7 11 0.00 0.00
9:52 pm 21:52 Partly Cloudy 25 -3.9 20 -6.7 81 81 E 5 7 30.34 1027 7 11 0.00 0.00
10:52 pm 22:52 Clear 24 -4.4 20 -6.7 84 84 SE 6 9 30.34 1027 10 16 0.00 0.00
11:26 pm 23:26 Mostly Cloudy 24 -4.4 20 -6.7 84 84 SSE 6 9 30.36 1028 7 11 0.00 0.00
11:52 pm 23:52 Cloudy with Mist and Fog 26 -3.3 23 -5 88 88 S 10 17 30.33 1027 6 10 0.00 0.00

Powered by AerisWeather